Theta_e
263 262 262 262 262 262 262 262 263 263 263 264 264 264 265 266 267 268 270 272 273 275 276 277 277 277 277 276 276 276 276 276 276 276 276 276 276 276 276 276 276 276 276 276 276 276 276 277 277 277 277 277 277 277 277 277 276 276 276 276 275 275 275
262 261 261 261 261 261 261 262 262 262 263 263 263 263 263 264 264 265 267 269 271 273 274 276 276 276 276 276 276 276 276 276 275 275 275 276 276 276 276 276 276 276 276 276 276 276 276 276 276 276 276 277 277 277 277 276 276 276 276 275 275 275 275
261 261 260 260 261 261 261 261 261 261 261 262 262 262 262 263 263 264 265 266 268 270 272 274 276 276 276 276 276 275 275 275 275 275 275 275 276 276 276 276 276 276 276 276 276 276 276 276 276 276 276 276 276 276 276 276 276 276 275 275 275 275 275
260 260 260 260 260 260 260 260 260 260 261 261 261 262 262 263 263 263 264 264 265 267 269 272 274 275 276 276 275 275 275 275 275 275 275 275 275 275 276 276 276 276 276 276 276 276 276 276 275 275 276 275 276 276 276 276 275 275 275 275 274 274 274
259 259 259 259 259 259 259 260 260 260 260 261 261 262 262 263 263 264 264 264 265 265 266 268 271 274 275 276 275 275 275 275 275 275 275 275 275 275 275 276 276 276 276 276 276 276 276 276 275 275 275 275 275 275 275 275 275 275 274 274 274 274 274
259 259 259 259 259 259 259 259 259 260 260 260 260 261 261 261 262 263 263 263 264 264 265 266 268 271 274 275 275 275 275 275 274 274 275 275 275 275 275 275 276 276 276 276 276 275 275 275 275 275 275 275 275 275 275 275 274 274 274 274 274 274 274
258 258 258 258 258 258 258 259 259 259 259 259 260 260 260 260 261 261 262 262 263 264 265 265 267 269 271 274 275 275 275 274 274 274 274 274 275 275 275 275 275 275 275 275 275 275 275 275 275 275 274 274 275 275 274 274 274 273 274 274 274 274 274
258 258 258 258 258 258 258 258 258 258 259 259 259 259 260 260 261 262 263 263 264 265 266 266 267 269 270 272 274 275 274 274 274 274 274 274 275 275 275 275 275 275 275 275 275 275 275 275 275 274 274 274 274 273 273 273 273 273 273 273 274 274 274
257 257 257 257 257 257 258 258 258 258 259 259 260 261 261 262 263 263 264 265 266 266 267 267 268 269 270 271 272 274 274 274 274 274 274 274 274 274 275 275 275 275 275 275 275 275 275 274 274 274 274 273 273 273 273 273 273 273 273 273 273 273 274
257 257 257 257 257 257 257 258 258 258 259 261 262 263 264 264 264 265 265 266 266 267 267 268 269 269 270 270 271 272 274 274 274 274 274 274 274 274 275 275 275 275 275 275 275 275 275 274 274 274 274 273 273 273 273 273 273 272 273 273 272 273 274
256 257 257 257 257 257 257 257 258 259 260 262 263 264 265 265 265 266 266 266 267 267 267 268 268 269 270 271 271 272 273 274 274 274 274 274 274 274 275 275 275 275 275 275 275 274 274 274 274 274 274 274 274 273 273 273 273 272 272 272 271 272 274
256 256 257 257 257 257 257 257 258 259 261 262 263 264 264 264 265 265 266 266 267 267 268 268 269 269 270 271 272 272 273 273 273 274 274 274 274 274 275 275 275 275 275 274 274 274 274 274 274 274 274 274 274 273 273 273 273 272 272 272 271 271 273
256 256 256 257 257 257 257 257 258 259 261 262 263 263 263 264 264 265 266 267 267 268 268 269 269 270 270 271 271 272 273 273 273 273 274 274 274 275 275 275 275 275 275 274 274 274 274 274 274 274 273 274 274 273 273 272 272 272 272 272 271 272 273
256 256 256 256 257 257 257 257 258 260 261 262 262 263 264 265 265 266 267 267 268 268 269 269 269 270 270 271 271 272 273 273 273 273 273 274 274 274 275 275 275 275 275 275 274 274 274 274 274 274 274 274 274 273 273 272 272 272 273 272 272 273 273
256 256 256 256 257 257 257 258 258 260 261 262 262 264 265 265 266 266 267 267 268 268 269 269 269 270 270 271 272 272 273 273 273 273 273 273 274 274 274 274 275 275 275 275 275 274 274 274 274 274 274 274 274 273 273 273 273 274 273 273 272 272 273
256 256 256 256 257 257 257 258 259 260 261 262 263 264 264 265 266 266 267 267 268 268 269 269 269 270 271 271 272 273 273 273 273 273 273 274 273 274 274 274 274 274 275 275 275 274 274 274 274 274 274 274 274 273 274 274 273 273 273 272 272 272 272
256 256 256 256 257 257 257 258 259 260 261 262 263 264 264 265 266 266 267 267 268 268 269 269 270 270 271 272 272 273 273 273 274 273 273 273 273 273 273 274 274 274 274 275 275 275 275 274 274 274 274 274 274 273 273 273 272 272 272 272 272 272 272
256 256 256 257 257 257 258 258 259 261 262 262 263 264 265 265 266 266 267 267 268 269 269 270 270 271 271 272 272 273 273 274 274 274 273 273 273 273 273 273 273 273 274 274 274 275 275 275 275 275 275 275 274 274 273 273 272 272 272 271 272 272 272
256 256 256 257 257 258 258 259 260 261 262 263 264 265 265 265 266 267 267 268 268 269 269 270 271 271 272 272 273 273 274 274 275 274 273 273 273 273 272 272 273 273 273 273 273 274 274 274 275 275 275 275 275 274 274 273 273 273 272 271 271 272 272
256 256 257 257 258 259 259 260 260 261 263 264 265 266 266 266 266 267 268 268 268 269 269 270 271 271 272 273 273 273 274 274 275 274 273 273 272 272 272 272 272 272 272 272 272 272 273 273 273 274 274 275 275 275 274 274 273 273 272 272 272 272 272
256 256 257 258 259 259 260 261 261 262 263 264 265 266 267 267 267 267 268 268 268 269 269 270 271 271 272 273 273 274 274 274 275 274 273 273 272 272 272 272 272 272 272 271 271 271 271 272 272 272 273 274 275 275 275 274 273 273 273 273 273 272 272
256 257 258 258 259 260 261 262 262 263 264 265 266 267 268 268 268 268 268 268 269 269 270 270 271 271 271 272 273 274 274 275 275 274 273 273 272 272 273 272 271 271 271 271 271 271 271 271 271 272 272 273 274 275 274 274 274 274 273 273 273 273 273
257 257 258 259 260 261 261 262 263 264 265 266 267 268 268 269 269 269 269 269 269 269 269 270 270 271 271 272 273 274 274 275 275 275 274 273 273 273 273 272 271 271 270 270 270 270 270 270 271 271 272 272 273 274 274 274 274 274 274 274 274 274 274
257 258 258 259 260 261 262 263 264 265 266 266 267 268 269 269 269 269 269 269 269 269 269 270 270 271 271 272 273 273 274 274 275 275 274 274 274 274 273 273 271 270 270 270 270 270 270 270 270 271 271 272 273 273 274 274 274 274 275 275 274 275 275
258 258 259 260 261 261 263 264 265 266 266 267 268 269 269 269 269 269 269 268 268 268 269 270 271 271 271 272 273 273 274 274 274 275 274 274 274 274 274 273 272 271 270 270 270 270 270 270 270 271 271 272 272 273 274 274 274 274 274 275 275 275 275
258 259 260 260 261 262 264 265 265 266 266 267 268 269 269 268 268 268 268 267 267 268 268 269 271 271 272 272 272 273 273 273 273 274 274 274 274 274 274 273 272 271 270 270 270 270 270 270 270 271 271 272 272 272 273 274 274 274 275 275 275 275 275
259 259 260 261 262 263 264 265 265 265 266 267 269 269 269 269 268 267 267 267 267 268 269 269 270 271 272 272 272 272 273 273 273 273 273 273 273 273 273 273 272 271 271 270 270 270 270 270 270 271 271 271 271 272 273 274 274 274 275 275 275 275 275
259 259 260 261 263 264 265 265 265 265 266 268 270 271 270 269 268 268 267 266 267 268 269 270 271 271 272 272 272 272 272 272 272 272 272 272 272 272 273 273 272 272 271 271 270 270 270 270 271 271 271 271 271 272 272 273 274 274 274 275 275 275 275
259 260 261 262 263 264 264 264 265 265 266 269 271 271 271 270 269 269 268 267 267 268 269 270 271 271 271 271 271 271 271 271 271 271 272 272 272 271 272 272 273 272 271 271 271 271 271 271 271 272 272 272 272 272 272 272 273 273 274 275 275 275 275
259 260 261 262 263 263 264 264 264 265 266 268 270 271 272 272 271 270 269 268 267 268 269 270 270 271 271 271 271 271 271 271 271 271 271 271 271 271 272 272 273 273 272 272 271 271 271 272 272 272 273 273 272 272 273 273 273 274 274 275 275 275 275
259 259 260 261 262 263 263 263 264 265 266 268 269 270 271 273 272 271 269 268 268 269 269 270 270 270 270 270 270 270 270 271 271 271 271 271 271 272 272 272 273 273 273 273 272 272 272 273 273 274 273 274 274 274 274 274 274 274 274 275 275 275 275
258 259 259 260 261 262 263 263 263 264 265 266 267 268 269 271 272 271 270 269 269 269 270 270 270 269 270 270 270 270 270 271 271 271 272 272 272 272 273 273 273 273 274 274 273 273 273 274 275 275 274 274 275 274 274 275 275 275 275 275 276 276 276
257 258 258 259 260 261 262 263 263 264 264 265 265 265 265 267 268 268 268 267 267 268 269 270 270 270 270 270 270 270 270 271 271 271 272 272 272 273 273 273 274 274 274 274 274 274 275 275 275 276 275 275 275 275 275 275 275 275 275 276 276 276 276
256 256 257 257 258 259 261 262 262 262 263 264 264 263 263 264 265 265 265 264 264 264 265 266 267 268 268 268 269 270 270 271 271 271 272 272 272 273 274 274 274 274 274 275 275 275 275 276 276 276 275 275 275 275 275 276 276 276 276 276 276 276 276
255 255 255 256 257 257 259 260 260 261 262 263 262 261 260 261 261 261 261 261 261 262 262 263 264 264 265 265 266 267 268 268 269 270 271 272 272 273 274 274 274 275 275 275 275 275 275 276 276 276 276 276 276 275 276 276 276 276 276 276 276 276 276
254 254 255 255 256 256 258 259 259 260 260 261 260 259 258 258 258 258 259 259 260 260 261 261 261 262 262 263 263 264 265 266 267 268 270 271 273 274 274 274 274 275 275 275 275 275 275 276 276 276 276 276 276 276 276 276 276 276 276 276 275 275 275
Wind_Speed
36 38 39 38 36 35 34 34 33 31 30 31 32 32 32 33 33 33 34 36 37 37 36 36 37 38 39 38 36 35 34 34 34 34 33 32 31 30 30 29 23 13 14 21 23 24 24 22 21 22 22 23 23 24 24 24 23 23 23 24 24 23 23
37 38 38 38 37 35 34 34 33 32 32 32 34 35 35 34 34 34 35 37 38 38 38 38 39 40 40 38 36 36 35 35 35 33 33 33 31 31 31 30 27 20 14 15 20 24 24 23 24 25 25 26 26 26 26 26 26 25 25 24 22 22 22
37 38 38 37 35 34 33 33 33 34 34 34 35 36 37 37 35 35 36 37 38 39 38 39 40 40 39 37 35 36 36 36 36 34 33 34 33 32 32 32 31 26 18 15 19 23 24 23 24 26 27 28 28 28 27 27 27 26 25 23 21 21 21
36 37 36 34 33 33 32 33 34 35 34 34 33 34 36 37 37 38 38 38 39 39 39 39 40 41 40 37 35 36 37 36 36 36 35 34 34 33 33 32 31 30 26 20 19 22 24 23 23 26 28 27 28 29 28 28 27 25 25 23 21 21 21
36 35 34 33 33 33 33 33 33 33 33 32 30 31 33 34 35 36 37 38 40 40 40 40 42 42 40 39 37 36 36 36 36 36 35 34 33 33 32 32 31 31 30 26 22 21 22 23 23 25 26 27 27 27 26 25 25 24 24 23 22 21 20
37 35 34 34 33 33 33 33 32 31 32 32 31 32 33 34 36 37 39 41 42 42 42 42 43 43 41 40 40 38 37 36 36 36 35 34 34 33 32 31 30 30 29 27 26 24 22 22 23 22 22 25 26 25 24 23 23 23 24 23 22 21 20
38 36 34 34 34 33 34 34 33 33 34 36 37 38 39 41 41 41 41 43 43 43 42 41 42 43 43 42 41 40 38 37 35 35 35 35 35 33 32 30 30 29 28 27 25 23 22 22 22 22 22 23 24 24 24 23 20 20 23 23 21 20 19
39 37 36 36 36 36 36 36 37 38 39 41 42 41 43 43 41 39 38 39 39 40 40 39 40 41 42 42 42 41 39 38 36 34 33 34 34 33 32 30 29 28 26 26 24 22 22 21 20 22 21 19 20 20 20 22 20 19 21 21 20 18 18
38 38 39 39 39 39 39 39 40 40 39 40 40 40 40 39 37 37 37 36 36 37 37 38 40 42 42 42 43 43 41 40 39 35 32 32 32 31 32 31 29 27 25 24 21 19 20 18 18 20 18 17 20 20 19 20 21 20 20 20 19 18 17
40 39 40 40 41 41 40 40 41 40 39 39 40 40 39 38 37 37 37 37 36 38 40 40 41 43 43 42 44 45 45 45 43 40 37 35 33 32 32 31 28 27 25 22 18 18 18 14 13 18 20 19 21 22 21 20 19 19 18 16 15 15 15
41 40 40 41 42 43 42 42 41 39 40 41 41 41 41 39 38 37 37 38 38 40 43 43 42 43 43 42 43 44 47 47 45 43 42 41 40 38 37 34 30 27 26 23 19 19 19 15 13 18 22 22 21 21 22 21 20 19 16 13 9 8 9
40 41 41 41 42 43 44 44 42 40 42 43 43 44 45 44 42 40 39 39 39 40 41 41 40 41 42 42 42 42 43 45 46 46 45 44 44 43 42 41 37 31 28 25 21 19 20 19 18 19 23 24 21 20 21 21 21 20 18 15 10 7 8
41 42 42 42 43 44 45 46 44 42 43 44 46 48 49 48 45 42 40 41 41 41 41 41 40 40 42 43 42 40 40 40 42 43 44 44 44 44 44 45 44 40 36 32 27 23 23 24 22 21 23 25 23 21 21 20 20 20 19 17 15 15 16
41 42 43 43 43 45 47 47 45 43 44 47 49 49 48 47 44 40 39 39 38 38 39 39 39 38 39 39 39 38 37 37 37 37 39 40 41 41 42 43 43 42 41 39 35 31 28 27 27 26 26 26 25 25 24 22 21 21 21 20 19 19 19
41 42 44 44 44 45 48 48 46 45 47 49 49 48 46 44 41 38 36 36 35 35 35 36 36 36 36 35 35 36 37 37 36 36 36 37 37 36 35 37 38 37 36 37 36 35 32 30 30 30 29 28 27 28 27 25 24 23 21 19 17 16 16
42 43 44 46 45 45 47 49 48 47 49 50 49 48 46 43 38 35 34 34 34 34 34 34 35 35 34 33 32 34 38 39 38 37 35 34 33 32 30 31 33 32 31 32 32 32 33 33 32 31 31 30 28 27 26 25 23 20 17 14 10 10 12
43 44 44 45 46 45 46 49 49 47 48 51 50 48 46 41 36 34 33 34 35 34 34 35 36 35 34 32 30 32 37 38 37 36 34 31 30 29 27 26 28 29 29 30 30 30 31 33 33 32 30 29 28 27 27 25 20 18 17 13 7 6 8
44 45 45 45 46 46 46 48 49 47 47 49 50 48 45 40 35 32 32 32 33 33 32 33 34 35 34 32 31 32 34 36 35 33 31 29 27 26 24 22 23 25 26 25 24 24 24 25 27 29 29 27 26 26 29 28 24 22 21 14 8 7 6
43 44 46 47 47 47 45 46 49 48 46 47 49 48 46 41 32 27 28 29 29 29 29 28 29 31 32 32 33 33 33 35 36 31 29 28 25 21 21 21 21 23 24 24 23 22 20 18 19 22 25 28 27 25 28 31 28 27 24 18 13 12 6
42 43 46 47 47 47 47 46 47 47 46 47 49 48 46 40 30 23 23 25 25 25 25 25 25 26 28 29 31 32 33 35 35 29 28 28 24 20 20 22 23 24 25 25 25 24 22 21 20 19 20 25 29 26 26 29 29 28 26 23 19 15 10
42 41 44 47 47 47 48 48 48 48 45 46 48 47 44 38 29 23 22 23 24 24 23 23 23 22 24 25 28 31 32 33 32 27 28 29 27 25 26 26 26 26 25 24 23 21 21 21 21 20 18 20 27 29 26 26 28 27 26 26 24 18 15
41 40 42 46 48 48 50 50 50 50 46 44 46 46 41 34 27 24 22 22 21 21 21 23 23 23 23 23 25 28 29 29 28 25 28 29 28 28 27 25 25 24 22 21 20 19 20 19 20 21 20 16 20 28 27 25 26 27 25 25 25 22 18
40 39 38 42 47 50 52 52 50 50 48 45 45 43 38 30 23 21 21 20 16 15 17 20 21 23 23 22 24 25 25 26 24 21 26 29 28 28 25 23 23 23 21 21 20 19 19 19 19 21 21 16 14 22 27 26 24 25 25 24 24 22 19
38 35 33 37 42 46 51 52 49 47 47 45 42 38 32 24 18 18 18 15 11 10 14 17 19 21 21 21 23 24 21 21 21 19 21 26 27 27 24 22 23 23 22 20 19 18 17 19 20 21 22 20 16 17 23 26 24 22 24 25 24 21 19
35 33 31 33 36 40 47 48 45 44 44 43 39 32 24 18 15 15 13 10 9 11 12 14 16 20 20 20 21 20 17 17 17 16 17 22 25 25 23 22 24 24 22 18 17 17 16 17 19 22 24 26 23 18 19 24 25 22 21 21 21 20 20
31 31 32 32 33 37 41 42 43 43 43 43 38 26 17 13 11 10 10 9 11 15 15 14 14 17 18 17 15 14 11 9 9 9 11 15 20 22 21 21 24 24 21 19 18 18 18 18 18 21 24 26 25 21 18 19 23 23 22 22 22 21 22
31 30 29 29 31 33 34 37 42 43 44 47 40 23 13 13 11 9 9 10 13 15 14 12 11 13 14 12 10 9 7 5 5 6 7 8 10 14 15 19 25 27 24 24 23 21 20 20 18 18 20 21 21 22 21 19 19 18 18 22 24 22 21
31 31 30 29 29 29 28 31 37 41 47 50 35 15 11 13 12 10 9 9 11 12 9 8 7 9 10 9 8 5 4 4 4 6 7 5 5 7 8 12 21 27 25 24 24 21 18 18 17 17 18 19 20 22 23 22 20 16 14 18 21 18 15
32 31 32 30 28 26 26 28 34 42 51 51 34 11 11 14 13 10 8 7 8 7 5 3 2 3 6 7 5 2 2 3 4 5 6 7 7 7 8 9 15 21 21 21 21 19 17 17 17 17 18 19 20 21 22 23 23 20 16 16 17 15 12
35 34 35 33 30 30 30 32 38 47 52 52 46 29 13 12 12 8 3 3 6 3 1 1 3 4 5 6 5 3 2 3 5 7 8 10 11 11 12 12 13 16 19 20 20 20 18 17 17 17 18 18 18 18 21 22 23 21 18 16 16 15 12
36 39 39 36 34 37 39 41 45 50 51 49 49 43 30 11 7 9 5 4 6 4 2 2 4 4 3 4 3 3 4 5 7 9 11 12 13 13 13 14 14 15 17 19 19 19 18 17 17 17 18 18 17 17 20 21 21 22 20 18 17 15 13
36 40 40 38 36 38 42 45 45 47 49 48 45 44 41 32 16 8 8 6 4 3 3 2 5 3 3 5 4 5 8 9 9 9 9 10 13 14 14 15 15 15 17 18 18 18 18 17 17 17 19 19 18 18 20 20 19 21 20 18 17 16 14
33 38 39 38 37 38 41 44 44 44 45 46 45 42 39 39 36 28 24 21 13 9 9 4 3 5 4 7 8 9 10 11 11 11 10 10 11 13 14 15 16 16 18 19 18 18 18 18 17 18 19 19 19 19 19 18 17 19 18 16 15 15 14
39 40 39 38 38 38 40 43 44 42 41 41 42 40 38 39 42 39 38 36 27 19 17 14 8 6 7 5 4 5 7 9 11 12 13 13 13 13 15 16 17 18 18 19 19 19 18 17 17 18 18 18 18 18 18 16 16 17 16 15 15 14 14
41 42 39 35 36 38 39 41 41 40 38 39 38 38 41 44 41 34 33 34 30 24 20 20 18 16 16 16 15 13 10 7 6 8 11 14 15 14 16 18 19 19 19 18 19 19 19 18 17 19 20 18 17 17 16 15 16 16 15 15 15 15 14
36 40 37 33 33 36 37 39 39 37 35 35 36 37 39 38 31 24 23 24 25 23 21 22 21 20 20 22 23 22 20 16 12 8 2 7 12 15 17 17 18 18 18 17 17 17 19 19 18 19 21 20 18 18 18 17 17 17 16 16 17 16 15
Wind_Direction
318 318 318 317 315 313 311 309 308 307 304 302 300 298 297 294 293 291 287 285 281 275 270 263 258 254 251 248 245 244 242 241 241 239 236 235 235 236 236 236 236 241 260 261 253 250 253 252 250 248 243 240 239 239 241 245 250 257 267 273 277 281 283
318 317 317 315 313 310 308 306 306 304 302 300 298 296 295 293 291 289 286 284 281 277 273 267 260 255 252 248 244 242 241 241 240 238 235 234 234 236 236 234 235 238 250 258 252 247 248 247 244 245 245 241 239 242 243 246 253 261 269 273 275 280 284
317 317 315 313 310 309 307 305 305 304 302 299 297 295 293 291 289 287 285 282 280 278 276 271 264 256 251 246 242 241 240 240 239 236 235 234 233 234 237 235 233 235 241 251 252 247 245 242 238 241 244 243 241 244 246 249 257 264 268 270 272 277 283
317 315 314 311 309 308 306 304 305 304 302 300 299 296 294 292 289 285 283 281 279 279 278 274 269 261 254 247 242 240 239 237 236 235 234 234 234 234 236 236 233 233 236 243 250 247 243 240 239 240 242 241 240 243 247 252 258 263 263 266 271 275 281
316 315 313 309 308 307 305 304 304 303 301 299 298 296 294 292 289 286 283 281 279 278 277 274 270 266 259 250 243 240 238 235 233 233 232 233 234 233 234 235 234 233 233 237 243 246 243 240 238 239 239 239 238 239 243 249 253 257 261 264 268 272 278
316 314 311 308 307 305 304 303 302 299 298 296 294 293 290 288 287 285 283 281 279 277 274 271 268 266 263 255 245 239 237 234 232 231 230 231 232 233 233 233 233 232 230 233 238 242 241 238 235 233 234 235 234 234 237 243 247 252 257 260 264 271 275
314 312 309 307 305 303 302 302 299 297 295 294 292 290 288 287 284 282 281 278 276 275 272 269 266 263 262 257 249 241 237 234 232 230 230 230 232 232 232 232 232 230 229 230 234 237 236 235 233 230 231 234 233 233 235 237 240 248 252 254 259 268 273
312 310 308 305 303 302 301 299 297 296 294 293 291 288 286 283 279 277 278 277 275 272 269 268 266 264 262 259 253 245 239 235 232 231 231 231 231 231 231 231 230 228 227 227 230 233 232 231 231 228 227 227 222 222 228 231 232 242 249 252 256 266 272
311 308 307 305 303 302 301 299 297 296 294 292 289 286 283 280 277 276 277 277 275 273 270 266 266 266 264 260 256 250 244 240 236 233 232 232 231 231 230 230 228 225 224 224 226 228 227 226 227 223 218 213 211 215 224 229 230 237 246 253 259 266 270
311 309 307 306 305 303 301 300 298 296 293 290 288 287 284 282 279 277 276 275 274 274 273 271 268 267 265 260 257 253 249 246 242 238 237 235 233 232 231 228 225 223 221 221 222 223 222 221 224 220 215 215 218 221 226 227 224 228 238 247 258 267 270
311 310 308 306 305 304 302 300 299 297 295 293 291 288 285 282 281 278 276 274 271 270 271 271 270 269 267 262 257 252 249 247 244 241 240 239 237 235 231 226 223 221 218 218 220 220 218 219 222 218 216 220 223 221 221 223 221 221 227 231 239 262 270
311 309 308 307 305 303 302 301 300 298 297 295 292 289 286 285 282 280 277 274 271 270 269 269 270 270 269 266 260 252 245 243 243 243 244 244 243 241 234 226 223 222 219 217 219 219 218 219 220 216 216 219 221 218 218 222 221 219 221 224 221 227 243
310 309 308 307 305 303 302 301 301 300 297 294 292 292 292 289 285 280 277 274 271 270 269 269 270 270 269 267 264 256 246 239 238 240 242 244 245 244 240 231 225 223 221 219 218 218 219 219 217 214 217 220 219 215 213 214 215 216 219 223 224 230 239
310 309 308 307 305 303 302 302 301 299 296 294 295 297 296 293 290 286 282 280 276 273 272 270 270 270 269 267 263 254 243 236 233 234 237 241 243 243 240 236 231 226 223 220 219 219 220 219 217 217 220 223 220 216 213 210 211 216 222 227 233 240 247
310 309 308 307 305 303 302 301 301 298 297 298 299 300 297 294 293 289 285 285 282 277 275 274 273 272 269 268 264 251 237 230 229 230 232 235 238 239 236 234 234 231 227 223 219 220 221 220 220 221 223 225 222 219 220 222 225 228 231 233 236 240 245
310 308 308 307 306 303 301 301 301 299 299 301 302 302 299 295 292 289 286 286 284 280 278 275 272 268 264 264 262 249 236 228 225 226 228 228 230 232 231 230 232 233 232 228 222 220 221 222 223 224 225 226 224 222 223 223 226 228 222 217 219 225 236
311 309 307 306 305 303 301 301 301 300 299 301 302 301 298 293 289 287 285 285 284 281 279 275 270 264 259 257 254 245 237 232 225 220 221 221 222 223 224 225 227 230 233 233 228 224 221 221 224 226 226 223 221 223 222 213 206 207 200 194 199 216 229
311 310 308 306 305 303 301 300 301 300 298 299 301 300 296 291 287 284 282 283 284 282 279 277 272 265 256 248 245 241 236 233 228 219 213 213 215 216 216 216 217 223 230 232 231 228 224 220 224 228 226 219 212 215 217 210 204 202 195 187 194 204 212
310 309 309 308 307 305 303 300 301 301 298 298 300 299 294 289 283 278 278 281 283 283 282 280 277 271 259 244 237 235 233 230 228 217 206 205 207 208 210 210 210 216 222 226 229 231 230 228 228 230 228 219 211 209 210 211 211 207 196 189 196 198 184
311 309 309 310 309 308 307 304 303 302 299 298 301 300 294 288 281 275 277 280 281 282 282 283 280 272 262 248 233 228 228 229 226 212 199 200 200 201 208 209 210 216 220 224 228 231 234 236 235 237 233 218 210 210 210 209 211 210 202 195 197 193 184
312 311 310 312 312 311 310 308 306 304 301 300 302 302 297 291 281 273 271 272 274 275 277 280 278 266 259 254 239 226 225 229 226 209 195 197 199 204 210 210 211 216 218 221 225 226 229 233 229 230 237 222 206 206 209 207 206 209 208 204 201 193 190
313 313 312 314 315 314 313 313 311 308 305 301 302 304 302 294 282 272 266 263 267 272 275 277 273 259 253 253 245 232 224 227 228 208 192 196 202 206 210 207 207 211 211 212 218 217 219 224 218 218 230 231 206 199 203 205 203 205 209 209 209 205 199
316 315 314 315 316 316 316 316 314 312 310 307 306 306 305 297 284 274 269 263 265 277 286 284 272 258 250 248 247 241 228 225 228 210 191 197 204 205 203 199 198 203 203 203 208 209 211 214 211 210 218 226 212 199 200 202 201 203 207 209 213 217 214
316 315 314 314 315 315 316 316 315 314 313 311 308 306 303 298 288 278 275 274 275 286 299 292 269 252 248 245 245 246 237 227 226 213 197 201 205 203 199 191 187 192 196 197 201 204 206 207 206 206 212 217 217 208 203 202 199 201 205 208 212 218 221
316 314 313 312 311 312 314 316 316 316 316 314 310 305 302 299 291 279 277 287 286 277 290 297 273 250 246 248 246 247 247 239 230 217 203 203 202 200 197 188 182 184 188 190 195 201 204 205 204 206 213 218 219 218 211 201 195 196 202 206 210 217 223
315 314 314 312 310 311 313 317 320 321 321 320 316 307 294 290 290 280 270 270 266 261 271 292 283 255 247 250 252 252 253 248 237 221 211 209 206 203 198 187 180 180 182 186 194 199 203 207 206 206 213 218 216 214 210 196 186 188 196 201 204 210 220
316 315 314 311 311 313 315 320 325 326 326 325 321 306 280 277 277 271 262 248 241 247 262 285 284 258 245 244 247 247 241 222 204 203 210 216 210 206 200 188 184 186 189 191 194 198 201 205 206 205 209 211 206 205 207 202 189 184 190 197 200 203 208
315 315 314 311 312 317 320 325 328 327 327 329 327 300 271 285 277 261 264 253 231 230 250 282 282 252 236 232 233 234 218 193 184 193 208 220 213 209 212 196 189 192 195 195 196 196 197 198 198 198 199 201 200 201 204 207 205 200 194 190 190 191 196
315 317 320 320 321 326 329 329 329 328 333 342 348 329 270 280 281 269 265 251 223 215 233 273 272 214 197 193 190 167 138 165 184 192 208 218 219 226 234 213 193 193 195 195 194 192 190 191 193 193 191 191 194 199 200 202 206 206 197 186 183 188 197
326 331 335 336 334 335 338 337 335 336 343 355 3 1 327 275 265 272 283 229 204 196 226 196 148 129 136 143 140 132 142 194 208 205 212 219 219 224 231 223 209 202 197 193 192 191 191 191 191 189 187 185 186 190 192 194 197 196 190 186 187 192 198
338 342 346 346 343 342 345 346 344 346 353 1 6 7 7 354 239 202 157 145 174 165 75 108 128 111 125 145 148 186 210 229 228 212 207 210 211 217 224 219 214 210 200 192 190 190 192 195 193 187 184 185 182 178 178 182 184 184 185 189 189 188 191
343 346 348 350 349 347 349 350 350 352 358 5 7 8 14 27 49 106 107 91 130 126 50 96 159 165 184 190 204 224 224 232 239 230 220 213 208 211 216 213 211 210 203 195 190 187 189 198 199 186 177 179 178 171 171 174 174 176 181 185 183 182 185
347 348 350 351 351 351 352 353 354 356 360 7 10 8 15 32 46 49 47 46 41 19 10 15 191 202 217 217 223 233 232 233 240 242 243 238 223 212 208 206 207 209 204 198 193 189 190 197 195 180 171 173 172 168 168 171 170 172 177 177 174 175 176
347 350 351 350 350 352 354 354 357 359 1 7 11 10 16 35 44 43 40 39 33 18 11 12 11 8 0 337 302 286 270 259 257 251 246 247 243 225 207 200 201 203 201 197 193 192 195 197 188 174 166 165 164 164 167 167 164 165 168 166 164 162 164
341 345 348 349 348 351 354 356 358 360 3 8 10 11 20 33 36 30 27 27 23 16 15 15 14 13 11 10 14 16 12 354 314 273 245 235 228 212 196 193 193 194 196 195 191 190 193 193 184 172 166 163 161 161 161 160 158 160 161 159 154 152 156
335 340 343 347 349 351 353 357 359 360 4 9 11 14 23 29 25 14 11 13 11 9 11 14 16 15 14 18 24 28 28 30 30 33 100 180 181 174 173 177 180 183 185 186 184 185 187 185 178 168 162 159 157 156 156 155 156 157 158 157 154 153 157